Flag for USA

Past Weather in Charlotte, North Carolina, USA — Yesterday and Last 2 Weeks

Now
83 °F

Passing clouds.


Feels Like: 85 °F
Forecast: 92 / 73 °F
Wind: 12 mph from Southeast

Location: Charlotte / Douglas International Airport

Current Time: Jul 14, 2020 at 11:57:15 pm

Latest Report: Jul 14, 2020 at 10:52 pm


Visibility: 10 mi

Pressure: 30.03 "Hg

Humidity: 59%

Dew Point: 67 °F

Location of CharlotteLocation

Past Weather in Charlotte — Graph

°F

Charlotte Temperature Yesterday

Maximum temperature yesterday: 93 °F (at 3:52 pm)
Minimum temperature yesterday: 72 °F (at 5:52 am)
Average temperature yesterday: 84 °F

High & Low Weather Summary for the Past Weeks

 TemperatureHumidityPressure
High94 °F (Jul 14, 2:52 pm)93% (Jul 10, 10:52 pm)30.08 "Hg (Jul 10, 10:52 pm)
Low66 °F (Jul 12, 4:52 am)32% (Jul 3, 5:52 pm)29.76 "Hg (Jul 12, 6:52 pm)
Average80 °F68%29.92 "Hg
* Reported Jun 29 9:52 pm — Jul 14 9:52 pm, Charlotte. Weather by CustomWeather, © 2020

Note: Actual official high and low records may vary slightly from our data, if they occured in-between our weather recording intervals... More about our weather records

Charlotte Weather History for the Previous 24 Hours

Scroll right to see more
 ConditionsComfort  
Time TempWeatherWind HumidityBarometerVisibility
9:52 pm
Tue, Jul 14
82 °FPassing clouds.12 mph63%30.02 "Hg10 mi
9:07 pm82 °FPartly cloudy.10 mph60%30.04 "Hg10 mi
8:52 pm85 °FThunderstorms. Passing clouds.12 mph57%30.01 "Hg10 mi
7:52 pm92 °FBroken clouds.6 mph40%29.99 "Hg10 mi
6:52 pm93 °FScattered clouds.8 mph38%29.98 "Hg10 mi
5:52 pm94 °FScattered clouds.3 mph37%29.96 "Hg10 mi
4:52 pm92 °FScattered clouds.No wind38%29.97 "Hg10 mi
3:52 pm94 °FScattered clouds.No wind38%29.97 "Hg10 mi
2:52 pm94 °FBroken clouds.6 mph38%29.97 "Hg10 mi
1:52 pm92 °FScattered clouds.6 mph41%29.98 "Hg10 mi
12:52 pm91 °FScattered clouds.5 mph44%30.00 "Hg10 mi
11:52 am89 °FScattered clouds.5 mph45%30.01 "Hg10 mi
10:52 am87 °FScattered clouds.8 mph48%30.01 "Hg10 mi
9:52 am85 °FScattered clouds.10 mph48%30.00 "Hg10 mi
8:52 am81 °FPassing clouds.7 mph56%29.99 "Hg10 mi
7:52 am77 °FPassing clouds.8 mph64%29.97 "Hg10 mi
6:52 am75 °FPassing clouds.9 mph66%29.95 "Hg10 mi
5:52 am76 °FClear.7 mph64%29.93 "Hg10 mi
4:52 am77 °FClear.8 mph69%29.92 "Hg10 mi
3:52 am75 °FPassing clouds.3 mph85%29.91 "Hg10 mi
2:52 am75 °FPassing clouds.6 mph85%29.92 "Hg10 mi
1:52 am74 °FPassing clouds.No wind88%29.92 "Hg10 mi
12:52 am78 °FPassing clouds.6 mph79%29.92 "Hg10 mi
11:52 pm
Mon, Jul 13
79 °FPassing clouds.6 mph74%29.92 "Hg10 mi
Weather by CustomWeather, © 2020

See weather overview